Regional Weather Roundup
Issued by NWS

Home | Current Version | Previous Version | Text Only | Print | Product List | Glossary On
Versions: 1 2 3 4 5 6 7 8 9 10 11 12 13 14 15 16 17 18 19 20 21 22 23 24 25 26 27 28 29 30 31 32 33 34 35 36 37 38 39 40 41 42 43 44 45 46 47 48 49 50
000
ASUS43 KIND 290109
RWRIN

WEATHER ROUNDUP FOR INDIANA
NATIONAL WEATHER SERVICE INDIANAPOLIS IN
900 PM EDT MON JUL 28 2014

NOTE: "FAIR" INDICATES FEW OR NO CLOUDS BELOW 12,000 FEET WITH NO
SIGNIFICANT WEATHER AND/OR OBSTRUCTIONS TO VISIBILITY.

* - STATION DOES NOT REPORT WEATHER SUCH AS PRECIPITATION OR FOG.

+ - STATION NOT QUALITY CONTROLLED BY THE NATIONAL WEATHER SERVICE.
    USE DATA WITH CAUTION...ESPECIALLY DEWPOINT AND RELATIVE
    HUMIDITY OBSERVATIONS.

INZ001>003-010>013-019-020-290200-
NORTHWEST INDIANA

CITY           SKY/WX    TMP DP  RH WIND       PRES   REMARKS
GARY /AIRPORT/ PTCLDY    63  52  67 VRB5      30.08F
KNOX *+        CLEAR     58  47  66 N5        30.05F
LA PORTE +     CLEAR     60  46  59 N14G21    30.06S
MICHIGAN CITY+ CLEAR     61  45  55 N7        30.07S
MONTICELLO +   CLEAR     60  49  65 N12       30.05F
RENSSELAER +   CLEAR     59  52  77 N3        30.08S
VALPARAISO     CLEAR     59  48  67 N5        30.07S

$$

LMZ046-743>745-290200-
SOUTHERN LAKE MICHIGAN

STATION/POSITION TIME  TEMP WIND        PRES
                       AIR  DIR/SP/G
                 (UTC) (F)  (DEG/KT/KT) (MB)
MICHIGAN CITY    0100   63  360/ 20/ 22   N/A

$$

INZ004-005-014>016-021>024-290200-
NORTH CENTRAL INDIANA

CITY           SKY/WX    TMP DP  RH WIND       PRES   REMARKS
ELKHART        CLEAR     57  48  72 NW8       30.05
GOSHEN         CLEAR     58  50  75 NW9       30.04R
LOGANSPORT +   CLEAR     59  45  58 NW8       30.05S
PERU/GRISSOM   CLEAR     60  50  69 NW8       30.04R
ROCHESTER +    CLEAR     59  48  67 N10       30.05S
SOUTH BEND     CLEAR     57  48  72 N8        30.06R
WARSAW +       CLEAR     55  48  76 NW7       30.04S

$$

INZ006>009-017-018-025>027-290200-
NORTHEAST INDIANA

CITY           SKY/WX    TMP DP  RH WIND       PRES   REMARKS
ANGOLA *+      CLEAR     59  52  77 NW6       30.01S
AUBURN +       CLEAR     59  48  67 NW9       30.02R
FORT WAYNE     CLEAR     58  49  72 NW7       30.02R
HUNTINGTON +   CLEAR     57  48  71 NW8       30.02S

$$

INZ028-029-035-036-043>045-051>053-290200-
WEST CENTRAL INDIANA

CITY           SKY/WX    TMP DP  RH WIND       PRES   REMARKS
GREENCASTLE +  CLEAR     61  46  59 N9        30.08S
LAFAYETTE      CLEAR     61  47  59 N6        30.07S
TERRE HAUTE    CLEAR     64  48  56 N10       30.08R

$$

INZ030>032-037>040-046>048-054>057-064-065-290200-
CENTRAL INDIANA

CITY           SKY/WX    TMP DP  RH WIND       PRES   REMARKS
CP ATTERBURY + CLEAR     63  48  59 NW10G17   30.04S
GREENWOOD *+   CLEAR     64  50  59 NW14G21   30.05
INDIANAPOLIS   CLEAR     61  46  57 NW14      30.05R
-EAGLE CREEK   CLEAR     62  46  55 NW12      30.05R
KOKOMO *+      CLEAR     59  46  63 N8        30.04S
MARION +       CLEAR     58  47  66 N6        30.03S
MT COMFORT *+  CLEAR     61  52  72 NW13G20   30.05R
SHELBYVILLE    CLEAR     63  50  62 NW15      30.02S
ZIONSVILLE +   CLEAR     61  45  56 NW8       30.06S

$$

INZ033-034-041-042-049-050-058-059-290200-
EAST CENTRAL INDIANA

CITY           SKY/WX    TMP DP  RH WIND       PRES   REMARKS
MUNCIE         PTCLDY    59  50  72 NW7       30.02S

$$

INZ060-061-067>069-081>083-085>088-290200-
SOUTHWEST INDIANA

CITY           SKY/WX    TMP DP  RH WIND       PRES   REMARKS
EVANSVILLE     CLEAR     71  54  54 N9        30.05R
WASHINGTON +   CLEAR     64  58  80 NW7       30.04R

$$

INZ062-063-066-070>080-084-089>092-290200-
SOUTH CENTRAL AND SOUTHEAST INDIANA

CITY           SKY/WX    TMP DP  RH WIND       PRES   REMARKS
BEDFORD +      PTCLDY    66  54  63 N5        30.04
BLOOMINGTON    CLOUDY    66  49  54 N14G24    30.05R
NORTH VERNON + CLEAR     64  55  72 N6        30.02
SEYMOUR +      CLEAR     63  41  45 N8        30.02

$$



USA.gov is the U.S. government's official web portal to all federal, state and local government web resources and services.